DateTimeUTC,F1_A11,F1_S11,BsB_S11,BsG_S11,BsR_S11,BbsB_S11,BbsG_S11,BbsR_S11,BaB_A11,BaG_A11,BaR_A11,Tu_S11,T_S11,Uu_S11,U_S11,P_S11,T1_A11
2021-09-09T23:00:00Z,00000200,21000000,,,,,,,0000.42,0000.17,-000.02,17.9,25.4,,00.0,0661.3,31.0
2021-09-09T23:01:00Z,00000200,21000000,,,,,,,-000.10,-000.12,0000.11,17.9,25.4,,00.0,0661.3,31.0
2021-09-09T23:02:00Z,00000200,21000000,,,,,,,0000.07,0000.42,0000.28,18.0,25.4,,00.0,0661.3,31.0
2021-09-09T23:03:00Z,00000200,61000000,,,,,,,0000.29,-000.12,0000.09,18.0,25.4,,00.0,0661.3,31.0
2021-09-09T23:04:00Z,00000200,41000000,0000.33,0000.60,-000.00,0000.23,0000.08,0000.32,0000.38,0000.75,-000.00,18.5,25.4,,00.0,0662.3,31.0
2021-09-09T23:05:00Z,00000200,01000000,-000.33,0000.42,0000.18,-000.11,0000.28,-000.08,-000.32,-000.15,0000.26,18.7,25.4,,00.0,0662.3,31.0
2021-09-09T23:06:00Z,00000200,01000000,0000.55,0000.70,-000.01,0000.37,0000.02,-000.18,0000.74,0000.27,0000.01,18.7,25.4,,00.0,0662.3,31.0
2021-09-09T23:07:00Z,00000200,01000000,0000.48,0000.60,-000.07,0000.39,0000.28,-000.34,-000.11,-000.41,0000.18,18.7,25.3,,00.0,0662.3,31.0
2021-09-09T23:08:00Z,00000200,01000000,0000.16,0000.64,-000.06,0000.33,0000.46,0000.01,-000.04,0000.26,-000.25,18.6,25.3,,00.0,0662.3,31.0
2021-09-09T23:09:00Z,00000200,01000000,0000.90,0000.66,0000.19,0000.27,0000.21,0000.06,-000.23,0000.15,-000.38,18.5,25.3,,00.0,0662.3,31.0
2021-09-09T23:10:00Z,00000200,01000000,0000.53,0000.76,0000.12,0000.62,0000.04,-000.13,0000.32,-000.03,0000.25,18.4,25.2,,00.0,0662.3,31.0
2021-09-09T23:11:00Z,00000200,01000000,0001.15,0000.65,0000.12,0000.78,0000.18,0000.18,0000.14,0000.08,0000.05,18.3,25.2,,00.0,0662.2,31.0
2021-09-09T23:12:00Z,00000200,01000000,0000.22,0000.68,0000.33,0000.17,0000.33,-000.07,0000.51,0000.39,0000.43,18.3,25.1,,00.0,0662.3,31.0
2021-09-09T23:13:00Z,00000200,01000000,-000.02,0000.79,0000.29,0000.48,0000.16,0000.25,0000.24,-000.19,0000.47,18.3,25.1,,00.0,0662.3,31.0
2021-09-09T23:14:00Z,00000200,01000000,0000.48,0000.76,0000.13,0000.48,0000.01,-000.01,0000.08,0000.64,0000.22,18.4,25.1,,00.0,0662.3,31.0
2021-09-09T23:15:00Z,00000200,01000000,0001.14,0000.70,0000.30,0000.82,0000.18,0000.10,0000.08,0000.22,0000.27,18.4,25.1,,00.0,0662.3,31.0
2021-09-09T23:16:00Z,00000200,01000000,0000.85,0000.29,0000.54,0000.30,-000.06,0000.40,0000.51,0000.33,0000.01,18.5,25.2,,00.0,0662.3,31.0
2021-09-09T23:17:00Z,00000200,01000000,0000.38,0000.51,0000.24,0001.03,0000.29,0000.12,0000.15,0000.69,0000.14,18.6,25.2,,00.0,0662.3,31.0
2021-09-09T23:18:00Z,00000200,01000000,0000.41,0000.51,0000.27,-000.05,-000.12,0000.11,0000.40,-000.07,-000.03,18.6,25.2,,00.0,0662.4,31.0
2021-09-09T23:19:00Z,00000200,01000000,0000.86,0000.12,0000.24,0000.24,0000.11,0000.16,0000.39,0000.02,0000.46,18.7,25.3,,00.0,0662.4,31.0
2021-09-09T23:20:00Z,00000200,01000000,0000.02,0000.61,0000.11,0000.44,0000.07,-000.12,-000.08,-000.19,-000.09,18.8,25.3,,00.0,0662.4,31.1
2021-09-09T23:21:00Z,00000200,01000000,0000.09,0000.69,0000.34,-000.01,0000.27,0000.14,0000.24,0000.32,0000.32,18.8,25.3,,00.0,0662.4,31.1
2021-09-09T23:22:00Z,00000200,01000000,0000.55,0000.30,0000.28,-000.05,0000.41,-000.25,0000.04,0000.16,-000.12,18.8,25.3,,00.0,0662.3,31.0
2021-09-09T23:23:00Z,00000200,01000000,-000.00,0000.46,0000.32,0000.51,0000.20,0000.41,0000.09,0000.18,0000.18,18.7,25.3,,00.0,0662.4,31.0
2021-09-09T23:24:00Z,00000200,01000000,0001.00,0000.70,0000.11,0000.34,0000.22,0000.08,-000.01,0000.33,-000.26,18.6,25.3,,00.0,0662.3,31.0
2021-09-09T23:25:00Z,00000200,01000000,-000.22,0000.76,0000.12,0000.42,0000.23,0000.20,0000.17,-000.35,0000.26,18.5,25.2,,00.0,0662.3,31.0
2021-09-09T23:26:00Z,00000200,01000000,0000.15,0000.35,0000.08,0000.40,-000.07,0000.00,0000.13,0000.11,0000.18,18.4,25.1,,00.0,0662.3,31.0
2021-09-09T23:27:00Z,00000200,01000000,0000.40,0000.49,0000.02,0000.38,0000.17,-000.01,0000.44,0000.47,0000.14,18.4,25.1,,00.0,0662.3,31.0
2021-09-09T23:28:00Z,00000200,01000000,0000.64,0000.47,0000.22,0000.98,0000.14,0000.30,0000.44,0000.32,0000.58,18.4,25.1,,00.0,0662.3,31.0
2021-09-09T23:29:00Z,00000200,01000000,0000.14,0000.15,0000.00,-000.40,0000.12,-000.29,0000.40,0000.70,0000.15,18.4,25.1,,00.0,0662.3,31.0
2021-09-09T23:30:00Z,00000200,01000000,0000.55,0000.47,0000.12,0000.12,-000.21,-000.07,0000.09,-000.06,0000.30,18.5,25.1,,00.0,0662.4,31.0
2021-09-09T23:31:00Z,00000200,01000000,0000.96,0000.93,0000.28,0000.25,0000.09,0000.34,0000.61,0000.27,-000.08,18.5,25.2,,00.0,0662.3,31.0
2021-09-09T23:32:00Z,00000200,01000000,0000.56,0000.76,0000.21,0000.13,0000.41,0000.27,0000.35,0000.12,0000.43,18.6,25.2,,00.0,0662.4,31.0
2021-09-09T23:33:00Z,00000200,01000000,0000.95,0000.41,0000.39,0000.71,0000.19,0000.07,-000.07,0000.49,0000.20,18.7,25.2,,00.0,0662.4,31.0
2021-09-09T23:34:00Z,00000200,01000000,-000.23,0000.21,0000.44,0000.29,0000.06,-000.23,0000.27,0000.17,0000.21,18.7,25.3,,00.0,0662.4,31.0
2021-09-09T23:35:00Z,00000200,01000000,0000.36,0000.59,0000.34,0000.20,0000.15,0000.04,0000.06,0000.04,0000.14,18.8,25.3,,00.0,0662.4,31.1
2021-09-09T23:36:00Z,00000200,01000000,0000.67,0000.39,0000.60,0000.52,0000.18,0000.27,0000.52,0000.31,0000.20,18.9,25.4,,00.0,0662.4,31.1
2021-09-09T23:37:00Z,00000200,01000000,0001.12,0000.76,0000.42,-000.22,0000.26,0000.25,0000.04,0000.04,0000.17,18.9,25.4,,00.0,0662.4,31.1
2021-09-09T23:38:00Z,00000200,01000000,0000.34,0000.76,0000.42,-000.29,-000.01,-000.00,0000.23,0000.09,-000.03,19.0,25.4,,00.0,0662.4,31.0
2021-09-09T23:39:00Z,00000200,01000000,0000.58,0000.40,0000.05,-000.24,0000.06,-000.32,-000.12,-000.17,-000.37,18.9,25.4,,00.0,0662.4,31.1
2021-09-09T23:40:00Z,00000200,01000000,0001.16,0000.49,0000.27,0000.23,0000.25,0000.02,0000.25,0000.41,0000.20,18.9,25.4,,00.0,0662.4,31.0
2021-09-09T23:41:00Z,00000200,01000000,0000.88,0000.46,0000.36,0000.54,0000.06,-000.21,0000.07,-000.11,0000.48,18.8,25.3,,00.0,0662.4,31.0
2021-09-09T23:42:00Z,00000200,01000000,-000.12,0000.65,0000.25,0000.26,0000.01,0000.20,0000.30,0000.74,-000.09,18.7,25.3,,00.0,0662.4,31.0
2021-09-09T23:43:00Z,00000200,01000000,0000.64,0000.53,0000.30,0000.75,0000.16,0000.13,0000.36,0000.25,0000.27,18.7,25.3,,00.0,0662.4,31.0
2021-09-09T23:44:00Z,00000200,01000000,0000.42,0000.67,-000.14,0000.12,0000.31,-000.16,0000.35,0000.40,0000.33,18.7,25.3,,00.0,0662.4,31.0
2021-09-09T23:45:00Z,00000200,01000000,0000.68,0000.71,0000.35,-000.23,0000.35,0000.12,0000.25,-000.03,0000.39,18.8,25.3,,00.0,0662.4,31.0
2021-09-09T23:46:00Z,00000200,01000000,0000.75,0000.43,0000.28,0000.10,-000.08,-000.13,0000.21,0000.26,0000.01,18.8,25.3,,00.0,0662.5,31.0
2021-09-09T23:47:00Z,00000200,01000000,0001.37,0000.65,-000.03,-000.33,-000.01,-000.07,0000.39,0000.49,0000.26,18.9,25.4,,00.0,0662.5,31.0
2021-09-09T23:48:00Z,00000200,01000000,0000.54,0000.43,-000.01,0000.20,0000.37,-000.25,0000.16,-000.02,0000.27,19.0,25.4,,00.0,0662.5,31.1
2021-09-09T23:49:00Z,00000200,01000000,0000.97,0000.49,0000.47,0000.01,0000.12,0000.05,0000.33,-000.07,-000.07,19.0,25.5,,00.0,0662.5,31.1
2021-09-09T23:50:00Z,00000200,01000000,0000.97,0000.63,0000.39,-000.44,0000.18,0000.19,-000.07,0000.37,0000.13,19.0,25.5,,00.0,0662.5,31.1
2021-09-09T23:51:00Z,00000200,01000000,0000.54,0000.88,0000.07,-000.04,0000.19,0000.17,-000.04,-000.12,-000.23,19.0,25.4,,00.0,0662.5,31.0
2021-09-09T23:52:00Z,00000200,01000000,0001.03,0000.21,0000.17,0000.81,0000.19,-000.19,0000.15,-000.15,0000.08,18.9,25.4,,00.0,0662.5,31.0
2021-09-09T23:53:00Z,00000200,01000000,0001.34,0000.35,0000.56,0000.37,0000.28,0000.53,0000.17,0000.38,-000.09,18.8,25.4,,00.0,0662.5,31.0
2021-09-09T23:54:00Z,00000200,01000000,0000.01,0000.74,0000.41,0000.14,-000.10,-000.07,-000.11,-000.24,0000.05,18.7,25.3,,00.0,0662.5,31.0
2021-09-09T23:55:00Z,00000200,01000000,0000.66,0000.60,-000.08,0000.60,0000.09,0000.07,-000.10,0000.08,-000.16,18.6,25.3,,00.0,0662.4,31.0
2021-09-09T23:56:00Z,00000200,01000000,0000.73,0000.78,0000.28,0000.65,-000.17,0000.39,0000.58,0000.31,0000.37,18.5,25.2,,00.0,0662.4,31.0
2021-09-09T23:57:00Z,00000200,41000000,,,,,,,-000.65,-000.40,-000.13,18.5,25.2,,00.0,0662.4,31.0
2021-09-09T23:58:00Z,00000200,61000000,,,,,,,0000.64,0000.25,0000.40,18.1,25.3,,00.0,0661.5,31.0
2021-09-09T23:59:00Z,00000200,21000000,,,,,,,0000.16,0000.43,0000.31,18.1,25.4,,00.0,0661.5,31.0
